Temp
-11 -11 -11 -11 -11 -11 -11 -10 -10 -10 -10 -10 -10 -9 -10 -10 -10 -10 -10 -10 -10 -10 -11 -11 -10 -10 -11 -11 -11 -11 -11 -11 -11 -11 -11 -11 -11 -11 -11 -11 -11 -11 -11 -11
-11 -11 -12 -11 -11 -11 -11 -11 -11 -11 -11 -10 -10 -10 -10 -10 -10 -10 -10 -11 -11 -11 -11 -11 -11 -11 -11 -11 -11 -11 -11 -11 -11 -11 -11 -11 -11 -11 -11 -11 -11 -11 -11 -12
-12 -12 -12 -12 -12 -12 -11 -11 -11 -11 -11 -11 -10 -9 -9 -9 -10 -10 -11 -11 -11 -11 -11 -11 -11 -11 -11 -11 -11 -11 -11 -11 -11 -11 -11 -11 -11 -12 -12 -12 -12 -12 -12 -12
-11 -12 -12 -12 -12 -12 -12 -12 -12 -12 -12 -11 -10 -8 -9 -9 -9 -10 -11 -11 -12 -11 -11 -11 -11 -11 -12 -12 -12 -11 -11 -12 -12 -11 -11 -11 -12 -12 -12 -12 -12 -12 -12 -12
-11 -12 -12 -12 -12 -13 -12 -12 -12 -12 -12 -11 -10 -10 -9 -9 -9 -9 -10 -12 -12 -12 -12 -12 -12 -12 -12 -12 -11 -11 -12 -12 -12 -11 -11 -11 -12 -12 -12 -13 -12 -13 -13 -13
-12 -12 -12 -13 -13 -13 -12 -13 -12 -12 -12 -10 -10 -10 -9 -9 -9 -10 -10 -12 -11 -12 -12 -12 -12 -12 -12 -12 -12 -12 -12 -12 -12 -12 -12 -12 -12 -13 -13 -12 -12 -12 -13 -13
-13 -13 -13 -13 -13 -13 -13 -13 -13 -12 -11 -10 -10 -10 -8 -9 -10 -10 -11 -11 -11 -12 -12 -12 -13 -13 -12 -12 -12 -12 -12 -12 -12 -12 -12 -13 -13 -13 -13 -12 -13 -13 -13 -14
-13 -13 -13 -13 -13 -13 -13 -13 -14 -12 -12 -10 -10 -8 -8 -9 -10 -11 -11 -11 -12 -13 -13 -13 -13 -14 -13 -12 -11 -12 -12 -12 -12 -13 -13 -13 -13 -12 -12 -13 -13 -13 -14 -14
-14 -13 -14 -14 -13 -13 -12 -13 -14 -14 -13 -11 -9 -8 -8 -10 -10 -11 -12 -12 -13 -13 -13 -13 -14 -15 -13 -12 -12 -12 -13 -13 -12 -13 -13 -13 -13 -13 -13 -13 -13 -14 -14 -15
-15 -14 -13 -13 -13 -13 -14 -14 -14 -15 -14 -13 -8 -9 -10 -11 -11 -11 -13 -12 -13 -14 -15 -14 -15 -14 -13 -12 -11 -11 -13 -13 -13 -13 -13 -13 -13 -13 -14 -14 -14 -14 -15 -14
-15 -15 -14 -14 -13 -14 -15 -14 -15 -15 -14 -14 -12 -7 -9 -11 -11 -12 -13 -13 -13 -14 -15 -14 -14 -14 -13 -13 -12 -12 -13 -13 -13 -13 -13 -14 -14 -14 -14 -14 -15 -15 -15 -14
-16 -16 -16 -14 -13 -13 -13 -14 -14 -14 -14 -14 -15 -8 -9 -11 -12 -12 -13 -13 -13 -13 -15 -13 -13 -13 -13 -12 -12 -13 -13 -14 -14 -14 -14 -14 -14 -15 -15 -15 -15 -15 -15 -15
-15 -16 -15 -13 -13 -12 -13 -13 -15 -15 -15 -12 -16 -9 -12 -12 -12 -13 -13 -14 -13 -13 -14 -13 -13 -13 -12 -12 -13 -13 -14 -14 -14 -15 -15 -15 -15 -15 -16 -16 -16 -16 -16 -16
-15 -15 -15 -14 -14 -14 -14 -14 -14 -15 -14 -13 -14 -13 -11 -12 -13 -13 -13 -13 -13 -13 -13 -14 -14 -14 -14 -13 -13 -14 -14 -15 -15 -15 -15 -16 -16 -16 -16 -16 -16 -17 -17 -17
-15 -15 -15 -15 -14 -15 -16 -15 -14 -13 -13 -14 -13 -14 -13 -12 -13 -13 -13 -13 -14 -14 -13 -14 -13 -14 -14 -14 -14 -14 -15 -15 -15 -15 -16 -16 -16 -17 -17 -17 -17 -18 -18 -18
-16 -15 -16 -15 -15 -15 -16 -15 -14 -14 -14 -15 -15 -15 -13 -14 -13 -13 -13 -15 -14 -14 -14 -14 -14 -14 -14 -14 -15 -15 -15 -16 -16 -16 -16 -17 -17 -17 -17 -17 -19 -19 -19 -19
-17 -17 -17 -16 -16 -17 -17 -14 -16 -15 -15 -15 -15 -15 -14 -14 -15 -16 -14 -14 -14 -14 -15 -14 -14 -14 -14 -14 -14 -15 -15 -16 -16 -17 -17 -17 -17 -18 -18 -19 -19 -20 -20 -20
-17 -17 -18 -18 -18 -18 -16 -16 -16 -15 -16 -16 -16 -15 -15 -15 -16 -16 -15 -15 -15 -15 -14 -14 -15 -15 -15 -15 -16 -16 -16 -17 -17 -18 -18 -18 -18 -19 -19 -20 -20 -20 -20 -20
-18 -18 -18 -19 -18 -18 -18 -15 -16 -16 -17 -17 -16 -16 -16 -16 -18 -15 -16 -17 -16 -15 -16 -16 -16 -16 -16 -17 -17 -17 -18 -18 -18 -18 -18 -18 -19 -19 -20 -20 -20 -21 -21 -20
-18 -19 -19 -19 -19 -19 -17 -16 -16 -18 -19 -15 -16 -17 -18 -18 -18 -18 -17 -17 -16 -16 -16 -17 -17 -17 -17 -18 -18 -18 -18 -18 -18 -18 -19 -19 -20 -20 -20 -20 -20 -21 -21 -21
-19 -19 -20 -20 -20 -20 -18 -17 -17 -20 -16 -17 -18 -18 -18 -18 -19 -19 -18 -18 -18 -17 -18 -18 -17 -18 -18 -19 -19 -19 -19 -19 -19 -19 -20 -20 -20 -20 -20 -21 -21 -21 -21 -22
-19 -20 -20 -20 -20 -21 -17 -20 -20 -17 -18 -18 -18 -19 -18 -19 -20 -19 -18 -19 -19 -19 -19 -19 -18 -19 -19 -19 -19 -19 -19 -19 -20 -20 -20 -20 -20 -21 -21 -21 -21 -22 -22 -22
-21 -20 -20 -21 -20 -20 -20 -20 -18 -19 -19 -19 -19 -18 -19 -20 -20 -20 -19 -18 -19 -19 -20 -19 -19 -19 -19 -19 -19 -20 -20 -20 -20 -20 -21 -21 -21 -21 -21 -22 -22 -22 -22 -23
-21 -21 -21 -21 -20 -20 -20 -20 -20 -20 -20 -20 -19 -19 -19 -19 -20 -20 -21 -20 -20 -19 -19 -20 -19 -19 -19 -19 -19 -20 -20 -20 -20 -20 -21 -21 -21 -22 -22 -23 -23 -23 -23 -25
-22 -23 -23 -21 -21 -21 -21 -21 -21 -21 -21 -21 -21 -20 -20 -20 -20 -21 -21 -21 -21 -20 -20 -19 -20 -20 -20 -20 -20 -20 -20 -20 -20 -21 -21 -22 -22 -23 -23 -24 -25 -25 -26 -26
-23 -23 -23 -22 -22 -23 -22 -22 -22 -21 -21 -22 -22 -22 -21 -21 -21 -21 -21 -21 -21 -21 -21 -20 -21 -20 -20 -20 -20 -20 -20 -21 -21 -21 -22 -22 -23 -24 -24 -25 -27 -28 -28 -29
Height
5837 5836 5841 5836 5833 5831 5830 5828 5826 5827 5818 5810 5812 5809 5816 5816 5812 5811 5807 5801 5796 5792 5788 5785 5782 5778 5774 5771 5768 5764 5760 5756 5753 5749 5746 5742 5738 5736 5733 5732 5729 5727 5725 5721
5825 5826 5831 5827 5824 5822 5820 5817 5818 5814 5808 5800 5800 5797 5802 5802 5804 5802 5798 5793 5787 5783 5778 5774 5770 5767 5764 5761 5757 5753 5749 5745 5741 5737 5733 5729 5725 5723 5720 5718 5716 5712 5709 5705
5814 5818 5817 5815 5814 5811 5809 5806 5805 5799 5797 5791 5784 5780 5787 5792 5789 5793 5789 5784 5779 5773 5768 5763 5757 5753 5751 5749 5745 5742 5738 5733 5728 5724 5720 5716 5712 5709 5706 5703 5700 5697 5692 5689
5803 5809 5806 5803 5803 5801 5796 5798 5792 5788 5782 5776 5775 5754 5771 5778 5779 5777 5774 5771 5768 5763 5758 5753 5747 5741 5740 5738 5736 5732 5726 5721 5716 5712 5708 5704 5700 5696 5693 5690 5686 5682 5677 5672
5797 5795 5795 5793 5793 5791 5785 5785 5782 5776 5770 5761 5763 5753 5753 5759 5761 5763 5767 5752 5753 5751 5748 5743 5736 5730 5728 5726 5724 5719 5714 5710 5705 5700 5695 5691 5686 5682 5680 5677 5672 5666 5661 5657
5785 5783 5783 5783 5782 5779 5775 5772 5769 5763 5760 5744 5754 5745 5735 5746 5746 5746 5749 5745 5739 5738 5733 5729 5723 5716 5711 5709 5710 5705 5701 5696 5691 5686 5681 5677 5673 5670 5667 5663 5657 5652 5646 5641
5773 5771 5771 5770 5769 5766 5765 5761 5754 5748 5747 5736 5738 5730 5728 5732 5731 5734 5734 5733 5728 5724 5721 5714 5708 5702 5697 5694 5695 5692 5687 5681 5675 5671 5666 5663 5660 5657 5653 5649 5643 5637 5631 5625
5756 5757 5760 5758 5757 5753 5749 5749 5745 5738 5735 5722 5725 5711 5717 5715 5717 5725 5725 5720 5713 5712 5710 5704 5695 5688 5684 5679 5679 5677 5672 5666 5661 5657 5653 5650 5647 5643 5638 5633 5628 5622 5615 5608
5743 5741 5743 5742 5741 5739 5735 5731 5733 5727 5724 5712 5707 5705 5703 5701 5704 5714 5712 5706 5700 5698 5695 5690 5681 5675 5672 5663 5664 5663 5657 5652 5647 5642 5639 5636 5632 5627 5622 5617 5612 5606 5600 5593
5724 5723 5724 5724 5725 5721 5723 5722 5715 5714 5709 5702 5692 5693 5685 5686 5693 5702 5698 5692 5685 5683 5679 5674 5668 5663 5656 5651 5649 5646 5641 5636 5632 5628 5625 5621 5616 5612 5606 5601 5596 5591 5583 5576
5706 5704 5710 5709 5708 5711 5707 5702 5701 5701 5697 5691 5688 5674 5673 5683 5687 5687 5685 5680 5675 5668 5662 5659 5653 5647 5639 5635 5633 5630 5627 5622 5617 5614 5610 5606 5601 5595 5590 5585 5580 5574 5566 5559
5690 5683 5684 5689 5691 5691 5687 5686 5687 5681 5681 5678 5669 5657 5674 5680 5678 5677 5674 5666 5659 5652 5647 5643 5636 5629 5624 5622 5619 5616 5612 5607 5603 5599 5594 5590 5585 5579 5574 5569 5562 5556 5548 5539
5670 5658 5661 5673 5674 5670 5670 5672 5670 5666 5663 5655 5647 5649 5670 5669 5666 5663 5656 5650 5646 5640 5635 5628 5622 5616 5612 5609 5605 5601 5597 5592 5588 5583 5579 5574 5568 5563 5558 5551 5545 5538 5530 5520
5648 5638 5642 5648 5661 5653 5648 5649 5651 5649 5640 5640 5630 5634 5650 5657 5655 5649 5642 5637 5633 5626 5619 5612 5608 5603 5599 5594 5591 5586 5581 5577 5572 5568 5563 5559 5553 5548 5542 5536 5529 5521 5511 5502
5627 5620 5624 5626 5635 5633 5630 5629 5639 5632 5625 5612 5623 5615 5626 5635 5634 5629 5623 5615 5609 5606 5600 5598 5592 5586 5581 5577 5573 5570 5565 5561 5556 5551 5548 5543 5537 5532 5525 5518 5510 5502 5494 5484
5606 5605 5605 5601 5613 5614 5606 5611 5622 5616 5616 5603 5596 5594 5617 5610 5611 5605 5606 5597 5592 5591 5580 5580 5574 5566 5562 5559 5555 5550 5546 5543 5539 5535 5531 5526 5521 5515 5508 5500 5492 5485 5478 5468
5589 5587 5584 5578 5594 5585 5574 5603 5606 5600 5600 5596 5586 5588 5592 5594 5586 5580 5583 5574 5574 5571 5566 5560 5557 5551 5547 5542 5537 5534 5531 5526 5522 5519 5515 5510 5505 5498 5491 5485 5478 5470 5461 5452
5570 5569 5565 5560 5565 5546 5569 5585 5587 5577 5581 5583 5571 5577 5581 5574 5569 5566 5569 5555 5553 5549 5546 5542 5537 5532 5527 5523 5520 5517 5515 5511 5507 5504 5499 5493 5486 5481 5475 5469 5462 5453 5443 5434
5554 5552 5542 5537 5535 5535 5534 5574 5577 5560 5553 5562 5567 5570 5561 5555 5541 5553 5547 5531 5529 5527 5521 5520 5517 5513 5509 5506 5502 5500 5498 5495 5492 5487 5481 5475 5469 5464 5458 5452 5446 5436 5426 5415
5532 5529 5521 5518 5509 5503 5525 5554 5558 5536 5506 5560 5556 5545 5540 5538 5524 5531 5530 5518 5511 5507 5502 5499 5497 5493 5490 5487 5485 5483 5482 5478 5473 5468 5463 5457 5452 5447 5441 5435 5427 5418 5409 5400
5509 5501 5493 5496 5486 5483 5506 5530 5527 5502 5508 5536 5531 5527 5522 5513 5506 5505 5506 5502 5496 5492 5486 5483 5479 5475 5473 5470 5468 5466 5462 5459 5454 5449 5445 5440 5434 5428 5422 5417 5410 5400 5392 5383
5484 5480 5476 5475 5464 5457 5497 5496 5485 5497 5501 5502 5505 5503 5499 5494 5491 5485 5484 5478 5474 5473 5471 5467 5464 5461 5459 5456 5453 5450 5445 5441 5437 5433 5428 5423 5417 5411 5406 5399 5393 5385 5377 5368
5448 5456 5457 5454 5443 5455 5462 5463 5471 5474 5473 5477 5476 5477 5473 5472 5473 5472 5468 5463 5458 5456 5454 5451 5447 5445 5443 5439 5435 5431 5427 5423 5420 5416 5411 5406 5401 5395 5389 5381 5375 5367 5361 5353
5429 5437 5427 5433 5435 5433 5438 5440 5445 5447 5446 5451 5454 5454 5450 5448 5448 5449 5448 5444 5443 5438 5435 5435 5432 5428 5424 5420 5418 5415 5410 5406 5402 5398 5394 5389 5384 5378 5373 5365 5360 5354 5345 5336
5409 5405 5410 5407 5412 5414 5414 5418 5421 5423 5425 5423 5425 5427 5427 5425 5426 5426 5425 5423 5421 5422 5420 5416 5414 5410 5407 5404 5400 5397 5393 5389 5384 5379 5374 5370 5366 5361 5356 5350 5343 5337 5329 5322
5394 5390 5388 5384 5403 5389 5391 5399 5399 5397 5399 5400 5399 5401 5405 5402 5401 5401 5402 5402 5401 5400 5399 5397 5395 5392 5388 5385 5382 5379 5376 5371 5366 5361 5357 5352 5349 5345 5341 5335 5329 5322 5316 5307
Wind_Speed
46 47 42 39 41 42 41 42 43 41 46 52 49 49 39 35 36 32 34 38 38 39 42 41 41 41 42 43 43 42 42 43 42 42 45 47 48 50 51 51 52 53 55 59
48 45 39 43 44 44 45 45 44 45 49 55 53 52 46 42 36 35 35 37 39 40 42 42 44 43 44 43 44 43 44 45 46 47 47 49 51 52 53 53 54 55 59 59
48 43 41 43 44 46 47 47 46 52 52 56 60 57 49 42 42 37 35 37 38 39 40 42 46 49 46 45 47 47 48 47 48 49 49 50 52 53 55 55 55 58 61 59
49 40 41 43 43 45 48 46 51 54 57 60 58 62 51 48 44 40 42 40 36 35 38 43 48 53 50 47 47 49 50 50 51 51 52 53 54 55 55 55 57 59 59 60
43 41 39 40 39 43 50 51 53 57 59 63 59 64 59 55 51 49 44 49 36 29 32 40 47 50 49 49 50 49 47 47 48 49 50 51 53 52 52 55 58 59 61 62
45 46 45 44 43 47 51 53 54 58 60 67 59 64 68 59 59 58 50 39 39 37 40 43 47 53 54 51 43 47 49 51 51 49 48 48 49 49 51 56 60 61 62 63
45 46 46 45 47 49 51 54 57 61 61 66 65 69 66 64 65 55 47 42 40 46 36 41 46 53 56 57 48 44 47 50 51 51 47 46 47 50 54 59 60 62 63 64
52 50 46 48 48 52 55 55 56 62 64 70 68 69 68 66 59 51 47 43 41 35 34 42 49 55 54 57 49 47 51 51 48 46 46 46 49 53 56 58 60 64 65 67
51 55 52 52 54 55 59 60 57 60 64 74 71 65 62 65 60 52 39 39 44 43 38 43 50 54 55 62 57 48 50 49 47 47 47 49 53 54 56 59 60 66 68 69
56 59 61 62 61 63 60 60 63 61 62 66 65 66 73 74 65 40 42 41 48 49 47 45 51 56 61 62 57 51 48 48 51 51 50 53 54 54 58 61 64 67 69 73
60 61 59 59 60 57 60 63 63 62 65 68 67 69 72 66 53 45 45 42 45 52 48 49 54 60 64 63 59 54 50 52 54 53 53 54 55 57 59 62 66 68 73 79
60 64 66 68 66 65 70 68 66 66 65 65 72 68 59 51 56 47 46 47 50 55 50 54 61 67 68 67 60 56 54 56 56 54 54 55 57 60 61 63 67 71 75 79
66 69 70 65 65 66 63 58 59 64 65 68 71 70 57 56 51 47 50 51 53 56 55 61 65 70 71 67 64 60 58 59 58 55 55 57 60 60 63 66 69 74 80 82
70 74 75 73 65 68 66 65 64 63 69 73 78 74 65 58 52 49 52 57 62 60 62 61 62 66 67 70 68 62 62 60 56 56 57 59 61 62 65 68 75 79 82 82
69 70 64 65 62 63 66 66 64 73 78 81 75 77 73 64 60 59 62 65 63 62 64 66 69 69 70 69 69 65 64 60 58 57 58 61 62 64 67 74 77 81 83 82
67 74 76 78 71 71 75 73 71 74 73 77 78 77 66 61 61 62 57 63 62 58 65 66 69 69 67 68 69 68 63 59 58 57 60 61 63 69 71 75 78 81 79 81
68 69 71 74 68 70 74 68 61 69 68 67 71 70 65 59 63 63 64 67 64 64 65 68 67 63 62 62 64 65 63 62 61 59 58 63 66 68 72 76 76 76 79 80
69 71 69 70 66 75 67 56 58 64 59 56 64 60 59 61 60 63 64 68 67 67 68 70 69 65 65 65 62 62 65 64 60 58 61 64 65 68 69 70 74 76 77 79
72 75 79 82 85 85 86 69 65 75 75 66 68 65 64 58 61 64 59 63 66 66 69 68 68 67 66 65 64 63 64 60 57 57 63 62 61 62 65 70 73 74 78 78
88 87 90 80 81 84 89 79 76 76 76 74 74 65 65 62 70 65 64 63 65 64 67 68 66 63 58 59 63 60 56 58 62 64 64 60 60 63 68 70 69 70 74 78
91 94 93 93 91 93 87 80 75 78 89 73 63 62 68 67 63 61 60 65 64 65 67 69 71 63 53 54 56 53 57 61 61 61 60 60 61 62 63 67 68 70 73 75
96 94 94 89 91 95 89 80 84 86 77 73 67 62 61 58 50 51 50 45 53 55 51 49 53 56 54 51 53 58 59 61 60 60 63 61 60 61 64 64 67 69 73 75
96 94 88 93 103 104 97 94 87 84 81 77 70 65 63 56 52 56 54 62 58 58 51 53 49 52 59 59 55 58 62 61 59 62 62 60 61 63 65 64 67 70 72 74
71 81 95 87 83 82 84 83 83 82 78 68 62 62 64 67 65 65 64 69 72 75 77 64 60 58 55 57 57 59 62 62 61 60 61 60 60 61 62 63 66 69 73 73
74 62 67 75 66 62 63 61 64 59 61 57 69 73 77 83 84 83 75 71 73 69 70 74 65 60 60 59 58 61 63 60 58 57 59 58 58 61 61 61 64 67 69 69
106 106 109 106 93 90 86 82 76 76 81 83 87 96 92 87 85 86 79 69 69 70 71 75 66 64 62 61 63 65 66 61 61 59 57 57 58 58 60 60 58 60 61 60
Wind_Direction
279 277 283 279 278 282 282 281 282 284 283 285 290 290 292 291 295 300 297 298 294 293 291 293 293 293 296 297 296 294 291 290 290 288 284 283 282 283 285 285 284 284 285 287
279 279 277 275 277 279 280 281 283 280 282 285 287 287 290 292 293 298 295 295 296 295 291 289 290 291 292 292 297 297 297 293 290 288 288 284 283 283 283 283 284 283 286 288
278 281 275 274 275 277 277 280 282 283 284 284 287 286 288 289 295 294 295 298 298 293 289 287 286 290 290 288 292 294 297 296 291 290 287 286 285 282 282 282 283 285 287 288
277 279 275 272 275 278 277 279 281 284 285 287 287 292 289 295 295 301 306 302 298 288 285 284 284 287 291 288 290 293 294 292 291 291 287 283 283 282 282 282 285 288 289 288
278 276 273 274 275 274 277 278 280 282 284 287 288 292 298 297 302 303 307 309 302 289 282 281 284 288 289 287 291 292 289 291 293 290 289 284 282 281 281 284 288 289 289 289
271 272 271 271 270 270 274 277 279 280 283 285 293 292 293 298 302 305 313 312 306 305 297 293 290 288 288 289 290 288 291 287 288 292 290 287 283 282 283 288 289 289 290 290
269 269 270 270 271 271 273 276 278 279 283 287 290 289 292 299 299 305 309 309 302 304 295 292 290 289 289 291 291 289 290 288 288 290 288 287 284 284 289 290 290 291 291 291
269 268 269 268 267 270 271 271 272 280 283 285 284 286 294 295 296 304 310 310 309 317 297 292 289 288 289 290 294 291 290 289 290 289 288 287 288 290 290 290 292 291 292 292
272 268 270 268 268 268 269 270 274 275 278 282 286 289 292 291 298 311 316 311 309 308 300 292 293 295 293 290 295 294 292 292 289 288 287 289 289 289 290 291 291 290 291 293
262 262 263 264 266 267 273 276 275 276 277 278 283 288 289 290 297 313 318 310 307 307 305 292 291 291 289 291 296 296 293 290 286 288 287 289 288 289 290 290 289 292 291 293
272 271 266 264 263 267 269 269 269 272 273 278 286 281 286 293 304 310 312 305 303 302 299 292 288 287 287 289 293 295 292 288 285 287 288 287 287 289 289 290 291 292 292 293
267 267 266 268 271 273 269 267 271 276 282 283 278 276 285 297 296 300 303 303 297 292 297 292 286 285 287 291 293 294 290 287 284 285 286 285 287 289 289 290 291 292 293 296
268 264 268 270 271 275 276 276 275 275 274 273 274 280 293 291 293 300 298 300 295 291 293 292 288 287 289 290 290 291 289 284 283 283 283 283 286 286 287 288 291 294 296 297
268 266 268 271 274 274 273 273 271 271 272 280 279 288 286 287 296 291 286 289 290 285 285 290 292 289 288 289 287 286 287 284 279 280 282 284 284 285 289 295 296 297 297 299
260 264 266 266 264 266 267 266 267 274 278 280 288 287 289 293 292 286 289 290 289 288 288 292 296 293 290 290 288 287 285 279 278 280 282 282 284 289 294 298 297 297 298 300
261 263 264 264 264 266 269 267 267 271 281 287 288 287 297 293 294 291 290 291 288 289 287 290 295 295 294 293 292 288 285 282 282 283 283 285 289 294 295 294 296 298 300 300
265 268 269 270 271 268 264 272 275 276 277 283 283 290 292 297 293 288 292 285 287 289 289 290 293 290 290 289 287 286 283 282 280 280 282 288 292 292 293 296 297 298 300 301
264 266 268 272 270 267 272 270 272 275 280 284 283 290 293 290 290 288 291 289 289 288 287 291 290 288 288 289 287 285 285 284 279 282 288 289 290 293 295 295 297 298 300 302
264 271 273 273 274 276 274 271 276 279 280 279 287 295 286 285 287 286 291 289 285 285 287 288 287 286 287 286 282 279 282 276 283 291 290 289 291 296 296 297 299 300 301 303
271 275 272 274 270 271 279 280 283 280 268 284 295 284 279 283 288 289 282 289 291 289 287 286 284 283 283 279 274 275 281 285 288 291 292 289 293 295 295 298 300 301 302 303
270 272 271 274 271 271 277 280 274 270 284 290 283 279 278 283 288 287 285 281 284 286 285 285 286 285 280 273 273 281 286 288 290 291 289 288 291 294 295 297 300 301 302 304
268 266 265 267 269 271 281 282 274 283 285 284 283 278 277 284 281 282 277 271 271 271 278 284 284 278 275 278 284 289 291 291 290 290 289 288 290 293 295 297 299 301 303 305
257 263 265 269 275 279 279 280 282 282 278 278 277 278 275 278 281 279 278 273 273 286 284 276 276 278 273 280 285 287 288 289 291 289 286 288 289 293 295 295 296 298 301 303
267 265 264 269 275 275 276 277 274 276 275 271 270 273 271 274 281 279 278 278 279 283 283 284 280 274 269 273 280 284 283 286 283 280 279 283 287 290 290 293 295 299 300 302
256 261 273 274 265 268 272 262 273 270 266 267 269 272 275 276 280 284 286 281 277 275 276 279 281 277 274 275 278 281 279 283 279 280 278 281 285 287 289 292 295 296 298 300
257 259 265 267 262 267 266 264 266 262 261 265 271 278 278 276 280 281 281 280 278 276 274 277 280 277 282 278 279 279 280 280 281 278 279 282 285 287 288 291 291 292 295 302